C7607 Weather Reports


Display with metric or nautical units.
time (UTC)temp
F
wind
direction
speed
MPH
gust
MPH
rain 1hr
in
rain 24hr
in
rain mn
in
humidity
%
barometer
mb
20260503004539 52 0 0.0 0.0 0.00 0.01 0.01 81 1014.0
20260503003040 54 0 0.0 0.0 0.00 0.01 0.01 77 1013.9
20260503001544 55 0 0.0 0.0 0.00 0.01 0.01 77 1013.7
20260503000047 56 0 0.0 0.0 0.00 0.01 0.01 71 1013.3
20260502234556 57 0 0.0 3.0 0.00 0.01 0.01 65 1013.2
20260502233040 57 61 1.0 4.0 0.00 0.01 0.01 63 1012.8
20260502231557 58 0 1.0 4.0 0.00 0.01 0.01 64 1012.9
20260502230049 57 24 1.0 5.0 0.00 0.01 0.01 65 1012.8
20260502224544 57 22 0.0 5.0 0.00 0.01 0.01 68 1012.7
20260502223037 57 0 0.0 4.0 0.00 0.01 0.01 71 1012.8
20260502221544 57 323 1.0 4.0 0.00 0.01 0.01 71 1012.7
20260502220042 57 0 0.0 0.0 0.00 0.01 0.01 76 1012.5
20260502214544 58 0 0.0 2.0 0.00 0.01 0.01 75 1012.4
20260502213042 58 0 1.0 5.0 0.00 0.01 0.01 75 1012.3
20260502211542 59 0 0.0 4.0 0.00 0.01 0.01 75 1012.4
20260502210040 59 0 0.0 3.0 0.00 0.01 0.01 75 1012.5
20260502204537 58 146 0.0 3.0 0.00 0.01 0.01 74 1012.4
20260502203035 58 0 2.0 5.0 0.00 0.01 0.01 73 1012.4
20260502201548 59 30 2.0 5.0 0.00 0.01 0.01 73 1012.5
20260502200039 60 40 0.0 5.0 0.00 0.01 0.01 73 1012.4
20260502194538 58 0 1.0 3.0 0.00 0.01 0.01 76 1012.5
20260502193049 58 163 1.0 5.0 0.00 0.01 0.01 75 1012.9
20260502191547 58 0 0.0 7.0 0.00 0.01 0.01 76 1013.0
20260502190043 59 53 1.0 7.0 0.00 0.01 0.01 77 1013.1
20260502184553 58 350 3.0 7.0 0.00 0.01 0.01 76 1013.2
20260502183037 57 38 3.0 9.0 0.00 0.01 0.01 78 1013.3
20260502181545 57 32 2.0 6.0 0.00 0.01 0.01 80 1013.5
20260502163113 54 47 2.0 7.0 0.00 0.01 0.01 87 1014.5
20260502161542 54 74 3.0 8.0 0.00 0.01 0.01 87 1014.9
20260502151545 55 51 0.0 5.0 0.01 0.01 0.01 88 1014.5
20260502123048 53 290 2.0 5.0 0.00 0.00 0.00 84 1013.8
20260502121550 53 346 0.0 5.0 0.00 0.00 0.00 85 1013.5
20260502114546 53 0 1.0 5.0 0.00 0.00 0.00 84 1013.5
20260502113044 53 352 0.0 4.0 0.00 0.00 0.00 84 1013.6
20260502111549 53 0 2.0 6.0 0.00 0.00 0.00 83 1013.6
20260502110042 53 323 1.0 9.0 0.00 0.00 0.00 82 1013.7
20260502104539 54 9 2.0 9.0 0.00 0.00 0.00 83 1013.6
20260502103059 54 343 1.0 3.0 0.00 0.00 0.00 85 1013.7
20260502101542 53 276 1.0 4.0 0.00 0.00 0.00 86 1013.8
20260502070041 53 0 0.0 0.0 0.00 0.00 0.00 90 1013.0
20260502064537 53 0 0.0 0.0 0.00 0.00 0.00 89 1012.9
20260502063047 54 0 0.0 0.0 0.00 0.00 0.00 89 1013.1
20260502061537 54 0 0.0 0.0 0.00 0.00 0.00 88 1013.2
20260502060044 54 0 0.0 0.0 0.00 0.00 0.00 88 1013.3
20260502054544 54 0 0.0 2.0 0.00 0.00 0.00 88 1013.3
20260502053039 54 0 0.0 1.0 0.00 0.00 0.00 88 1013.5
20260502051536 54 206 0.0 4.0 0.00 0.00 0.00 87 1013.6
20260502050047 54 224 0.0 3.0 0.00 0.00 0.00 87 1013.7
20260502044547 54 0 0.0 0.0 0.00 0.00 0.00 87 1013.9
20260502043040 54 0 0.0 0.0 0.00 0.00 0.00 86 1013.8
20260502041543 54 0 0.0 2.0 0.00 0.00 0.00 86 1014.0
20260502040044 54 0 0.0 1.0 0.00 0.00 0.00 85 1014.2
20260502034544 54 0 0.0 1.0 0.00 0.00 0.00 85 1014.1
20260502033043 54 0 0.0 0.0 0.00 0.00 0.00 85 1014.2
20260502031543 54 0 0.0 2.0 0.00 0.00 0.00 84 1014.1
20260502030039 54 0 0.0 6.0 0.00 0.00 0.00 84 1014.2
20260502024540 54 0 0.0 2.0 0.00 0.00 0.00 84 1014.4
20260502023037 55 0 0.0 2.0 0.00 0.00 0.00 83 1014.4
20260502021536 55 0 0.0 4.0 0.00 0.00 0.00 83 1014.4
20260502020035 54 0 0.0 0.0 0.00 0.00 0.00 84 1014.5
20260502014535 54 0 0.0 0.0 0.00 0.00 0.00 84 1014.4
20260502013046 54 0 0.0 0.0 0.00 0.00 0.00 83 1014.3
20260502011539 54 0 0.0 0.0 0.00 0.00 0.00 83 1014.4
20260502010045 54 0 0.0 2.0 0.00 0.00 0.00 82 1014.0